Location: Gälforsberget
(66.6500°N, 22.4167°E)
Time: 05:18:56
(UTC+00:00)

Cosmos 2278 - Pass Details

Date: 11 April 2026
Orbit: 836 x 852 km, 71.1° (Epoch: 10 May)

Event Time Altitude Azimuth Distance (km) Brightness Sun altitude
Rises 22:05:55 0° 277° (W) 3,411 7.0 -14.6°
Reaches altitude 10° 22:08:25 10° 282° (WNW) 2,479 6.4 -14.7°
Maximum altitude 22:14:01 56° 0° (N) 1,012 4.5 -14.7°
Drops below altitude 10° 22:19:39 10° 79° (E) 2,488 6.2 -14.7°
Sets 22:22:10 0° 84° (E) 3,426 6.9 -14.7°
